Location: Unspecified
(38.9820°N, 94.4650°W)
Time: 22:10:56
(UTC-05:00)

Okean 3 - Visible Passes

Search period start: 15 July 2018 00:00
Search period end: 25 July 2018 00:00
Orbit: 577 x 602 km, 82.5° (Epoch: 15 July)

Date Brightness Start Highest point End Pass type
(mag) Time Alt. Az. Time Alt. Az. Time Alt. Az.
15 Jul 4.9 01:21:17 10° N 01:24:03 37° NNE 01:24:03 37° NNE visible
16 Jul 4.8 01:29:17 10° N 01:31:57 38° N 01:31:57 38° N visible
17 Jul 6.1 00:02:49 10° NE 00:03:20 11° ENE 00:03:20 11° ENE visible
17 Jul 5.0 01:37:24 10° NNW 01:39:52 32° NNW 01:39:52 32° NNW visible
18 Jul 5.8 00:09:30 10° NNE 00:11:16 15° NE 00:11:16 15° NE visible
18 Jul 5.4 01:45:40 10° NNW 01:47:48 25° NW 01:47:48 25° NW visible
19 Jul 5.5 00:16:56 10° NNE 00:19:12 21° NE 00:19:12 21° NE visible
19 Jul 5.7 01:54:04 10° NW 01:55:44 19° NW 01:55:44 19° NW visible
20 Jul 5.2 00:24:37 10° N 00:27:09 28° NE 00:27:09 28° NE visible
20 Jul 6.0 02:02:45 10° NW 02:03:41 13° WNW 02:03:41 13° WNW visible
21 Jul 5.0 00:32:29 10° N 00:35:07 34° NNE 00:35:07 34° NNE visible
22 Jul 4.9 00:40:28 10° N 00:43:05 36° N 00:43:05 36° N visible
23 Jul 5.1 00:48:34 10° NNW 00:51:04 33° NNW 00:51:04 33° NNW visible
23 Jul 5.7 23:20:49 10° NE 23:22:32 15° ENE 23:22:32 15° ENE visible
24 Jul 5.4 00:56:48 10° NNW 00:59:04 27° NW 00:59:04 27° NW visible
24 Jul 5.4 23:28:11 10° NNE 23:30:32 20° NE 23:30:32 20° NE visible
